This demonstration page uses our WeatherBlox Daily Observations layout. Learn more.

Hourly Observations for July 8, 2020

Temp ( °F °C ) Dew Point ( °F °C ) Humidity (%) Winds ( mph kmh ) Pressure ( in mb ) Visibility ( mi km ) Precip ( " mm )
12:54 am 00:54 Clear 78 25.6 69 20.6 74 74 S 10 17 29.86 1011 10 16.0934 0 0
1:54 am 01:54 Clear 77 25 68 20 74 74 S 10 17 29.85 1011 10 16.0934 0 0
2:54 am 02:54 Clear 75 23.9 68 20 79 79 S 9 15 29.83 1010 10 16.0934 0 0
3:54 am 03:54 Clear 72 22.2 67 19.4 84 84 S 8 13 29.83 1010 10 16.0934 0 0
4:54 am 04:54 Clear 71 21.7 66 18.9 84 84 S 8 13 29.82 1010 10 16.0934 0 0
5:54 am 05:54 Clear 70 21.1 66 18.9 87 87 S 8 13 29.83 1010 10 16.0934 0 0
6:54 am 06:54 Sunny 74 23.3 67 19.4 79 79 S 7 11 29.83 1010 10 16.0934 0 0
7:54 am 07:54 Sunny 78 25.6 67 19.4 69 69 SSW 12 19 29.84 1010 10 16.0934 0 0
8:54 am 08:54 Sunny 82 27.8 68 20 63 63 SSW 14 22 29.84 1011 10 16.0934 0 0
9:54 am 09:54 Sunny 84 28.9 69 20.6 61 61 SSW 9 15 29.83 1010 10 16.0934 0 0
10:54 am 10:54 Sunny 87 30.6 69 20.6 55 55 SW 14 22 29.84 1010 10 16.0934 0 0
11:54 am 11:54 Sunny 89 31.7 68 20 50 50 SSW 15 24 29.83 1010 10 16.0934 0 0
12:54 pm 12:54 Sunny 90 32.2 71 21.7 54 54 S 17 28 29.81 1009 10 16.0934 0 0
1:54 pm 13:54 Sunny 91 32.8 68 20 47 47 SSW 14 22 29.8 1009 10 16.0934 0 0
2:54 pm 14:54 Sunny 91 32.8 68 20 47 47 S 18 30 29.78 1009 10 16.0934 0 0
3:54 pm 15:54 Mostly Sunny 91 32.8 69 20.6 49 49 S 18 30 29.77 1008 10 16.0934 0 0
4:54 pm 16:54 Partly Cloudy 92 33.3 69 20.6 47 47 S 17 28 29.76 1008 10 16.0934 0 0
5:54 pm 17:54 Sunny 89 31.7 69 20.6 52 52 SSE 16 26 29.76 1008 10 16.0934 0 0
6:54 pm 18:54 Sunny 90 32.2 70 21.1 52 52 SSE 13 20 29.76 1008 10 16.0934 0 0
7:54 pm 19:54 Sunny 88 31.1 69 20.6 54 54 SSE 14 22 29.75 1007 10 16.0934 0 0
8:54 pm 20:54 Sunny 86 30 70 21.1 59 59 SSE 12 19 29.72 1006 10 16.0934 0 0
9:54 pm 21:54 Clear 85 29.4 68 20 57 57 SSE 13 20 29.74 1007 10 16.0934 0 0
10:54 pm 22:54 Clear 84 28.9 68 20 59 59 SSE 16 26 29.72 1007 10 16.0934 0 0
11:54 pm 23:54 Clear 83 28.3 69 20.6 63 63 SSE 17 28 29.7 1006 10 16.0934 0 0

Powered by AerisWeather